Regional Weather Roundup
Issued by NWS

Home | Current Version | Previous Version | Graphics & Text | Print | Product List | Glossary On
Versions: 1 2 3 4 5 6 7 8 9 10 11 12 13 14 15 16 17 18 19 20 21 22 23 24 25 26 27 28 29 30 31 32 33 34 35 36 37 38 39 40 41 42 43 44 45 46 47 48 49 50
000
ASUS43 KDMX 231006
RWRIA

WEATHER ROUNDUP FOR IOWA
NATIONAL WEATHER SERVICE DES MOINES IA
500 AM CDT THU MAR 23 2017

NOTE: "FAIR" INDICATES FEW OR NO CLOUDS BELOW 12,000 FEET WITH NO
SIGNIFICANT WEATHER AND/OR OBSTRUCTIONS TO VISIBILITY.

* - THESE STATIONS ARE NOT NWS STATIONS...THUS NOT UNDER NWS
QUALITY CONTROL.  THEY ALSO DO NOT REPORT WEATHER SUCH
AS PRECIPITATION OR FOG.

IAZ001>003-012>014-020>022-031>034-043>046-231100-
   NORTHWEST IOWA

CITY           SKY/WX    TMP DP  RH WIND       PRES   REMARKS
CARROLL *      CLOUDY    41  21  45 SE13      30.10F
CHEROKEE *     CLOUDY    40  22  48 S8        30.06F WCI  35
DENISON *      CLOUDY    41  21  45 SE9G18    30.05F
LE MARS *      CLOUDY    43  23  45 SE13G21   30.03F
ORANGE CITY *  CLOUDY    39  25  56 S13       30.02F WCI  32
SHELDON *      CLOUDY    39  27  60 SE18G24   30.02F WCI  30
SIOUX CITY     CLOUDY    42  26  53 SE13      30.03F
SPENCER        CLOUDY    38  22  52 SE16      30.07F WCI  29
STORM LAKE *   CLOUDY    39  21  48 SE18      30.06F WCI  30
$$

IAZ055>058-069>071-079>083-090>094-231100-
   SOUTHWEST IOWA

CITY           SKY/WX    TMP DP  RH WIND       PRES   REMARKS
ATLANTIC *     CLOUDY    45  19  36 SE10      30.09F
AUDUBON *      CLOUDY    43  19  39 SE10      30.10F
CLARINDA *     CLOUDY    46  21  36 SE12      30.11F
COUNCIL BLFS * CLOUDY    45  21  39 SE14G20   30.05F
CRESTON *      CLOUDY    43  18  36 SE14      30.14F
HARLAN  *      CLOUDY    43  19  39 SE15G21   30.11F
LAMONI         CLOUDY    44  19  36 SE13      30.15S
RED OAK *      CLOUDY    45  19  36 SE14      30.08F
SHENANDOAH *   CLOUDY    46  21  36 SE13G20   30.08F
$$

IAZ047>049-059>061-072>074-084-231100-
   CENTRAL IOWA

CITY           SKY/WX    TMP DP  RH WIND       PRES   REMARKS
AMES           CLOUDY    39  21  48 SE15G24   30.17F WCI  31
ANKENY *       CLOUDY    41  18  38 SE14      30.19F
BOONE *        CLOUDY    39  18  41 SE20      30.14F WCI  30
CHARITON *     CLOUDY    41  18  38 SE12      30.18S
DES MOINES     CLOUDY    42  16  34 E12       30.17F
GRINNELL*      CLOUDY    37  22  54 E12       30.23F WCI  29
MARSHALLTOWN   CLOUDY    37  22  54 SE18      30.19F WCI  27
NEWTON *       CLOUDY    37  19  48 SE15G21   30.20F WCI  28
PELLA *        CLOUDY    39  21  48 SE10      30.22F WCI  32
PERRY *        CLOUDY    40  14  34 E16       30.13F WCI  32
$$

IAZ004>006-015-016-023>025-035-036-231100-
   NORTH CENTRAL IOWA

CITY           SKY/WX    TMP DP  RH WIND       PRES   REMARKS
ALGONA *       CLOUDY    37  23  56 SE15      30.12F WCI  28
CLARION *      CLOUDY    37  23  56 SE16G23   30.15F WCI  28
ESTHERVILLE    CLOUDY    35  24  64 SE20      30.09F WCI  24
FORT DODGE *   CLOUDY    39  18  41 SE12G20   30.13F WCI  32
MASON CITY     CLOUDY    34  23  64 SE15      30.19F WCI  24
FOREST CITY *  CLOUDY    34  27  75 SE13G18   30.17F WCI  25
WEBSTER CITY * CLOUDY    37  19  48 SE20G25   30.12F WCI  27
IOWA FALLS *   CLOUDY    37  22  55 SE15G22   30.19F WCI  28
$$

IAZ007>011-017>019-026>030-037>042-050>054-066-231100-
   NORTHEAST IOWA

CITY           SKY/WX    TMP DP  RH WIND       PRES   REMARKS
CEDAR RAPIDS   CLOUDY    35  23  61 SE14      30.26F WCI  26
CHARLES CITY * CLOUDY    34  21  60 SE15      30.23R WCI  24
CLINTON *      CLOUDY    32  24  72 SE14      30.34F WCI  22
DECORAH *      CLOUDY    34  21  60 SE13G24   30.25F WCI  25
DUBUQUE        CLOUDY    32  21  64 SE12G21   30.32F WCI  23
MONTICELLO *   CLOUDY    34  23  64 SE14      30.30F WCI  24
OELWEIN *      CLOUDY    34  23  64 SE21      30.25F WCI  22
WATERLOO       CLOUDY    36  21  54 SE12      30.24F WCI  28
$$

IAZ064-065-067-068-078-231100-
   EAST CENTRAL IOWA

CITY           SKY/WX    TMP DP  RH WIND       PRES   REMARKS
DAVENPORT      CLOUDY    33  22  63 SE12      30.33F WCI  24
IOWA CITY      CLOUDY    37  23  56 E12       30.30F WCI  29
MUSCATINE *    CLOUDY    37  21  52 SE13G18   30.31F WCI  29
QUAD CITIES    CLOUDY    34  23  64 E9        30.34S WCI  27
$$

IAZ062-063-075>077-085>089-095>099-231100-
   SOUTHEAST IOWA

CITY           SKY/WX    TMP DP  RH WIND       PRES   REMARKS
BURLINGTON     CLOUDY    37  22  54 SE14      30.29F WCI  28
FAIRFIELD *    CLOUDY    37  19  48 SE16      30.25S WCI  28
FORT MADISON * CLOUDY    39  21  48 SE12      30.27F WCI  32
KEOKUK *       CLOUDY    39  21  48 SE10G20   30.26F WCI  32
OSKALOOSA *    CLOUDY    38  22  52 SE14      30.23F WCI  29
CENTERVILLE *  CLOUDY    41  18  38 SE14      30.20F
OTTUMWA        CLOUDY    40  19  43 E9        30.23S WCI  34
WASHINGTON *   CLOUDY    37  23  56 SE17      30.28F WCI  28
$$

ABBREVIATIONS USED IN REMARKS
   TC - TEMPERATURES IN CELSIUS
  WCI - WIND CHILL INDEX
   HX - HEAT INDEX
  VSB - VISIBILITY
$$




USA.gov is the U.S. government's official web portal to all federal, state and local government web resources and services.